Last server records
Pro Nub

Map info

kz_cg_wigbl0ck
kz_cg_wigbl0ck ( Xtreme-Jumps) 29.01.2006
Xtreme-Jumps record shooting-star - 02:03.50

KZ-Rush record silentq - 02:50.18

Mapper  DyleT2

Pro-record pL - 03:37.70

Nub-record rawe - 02:35.40 (28 cp / 2 gc)

Difficulty Average

Length Middle

Download map kz_cg_wigbl0ck (4,28 MB)
Installation instructions

Map Installation Guide

  1. Download map archive kz_cg_wigbl0ck.zip
  2. Unzip the archive in any convenient folder
  3. Open cstrike folder, which is located in the place of Counter-Strike installation. In case of Steam version the path looks like Steam\steamapps\common\Half-Life
  4. Copy all files from the folder, where you unzipped the archive, to cstrike folder according to the following table (if your system asks about replacing files, choose Copy and Replace):
maps/kz_cg_wigbl0ck.bsp>>maps/kz_cg_wigbl0ck.bsp
sound/wigbl0ck/groobie.wav>>sound/wigbl0ck/groobie.wav

Community records

# Player Time Difference Date  
1 silentq 02:50.18   31.01.17
2 famch 03:38.16 -00:47.98 26.01.19
# Player Time Date Weapon
1 pL 03:37.70 17.12.17
2 famch 03:44.28 27.03.19
3 silentq 03:45.90 30.01.17
4 SlasHeR 04:05.01 15.12.16
5 aLfers 04:17.43 27.03.19
6 hrd 04:24.35 17.09.21
7 Tihonya 04:27.06 08.12.17
8 Tihonya____` 04:31.10 04.06.19
9 ArvInD 04:36.19 17.09.21
10 Hong10 04:37.11 11.07.21
11 oRR 04:45.98 08.11.18
12 BLORIK 04:47.92 14.06.17
13 zmokiE 04:53.55 17.12.17
14 Kalashnikov 04:54.80 15.12.16
15 erdik 04:57.69 04.06.19
16 ddevil 04:59.52 02.11.18
17 trololo 05:00.15 08.06.20
18 Yacoff 05:06.63 15.06.17
19 Uncle_Coffee_ 05:11.39 01.04.19
20 Creep 05:12.91 17.12.17
21 rapier 05:13.29 02.11.18
22 Master_Me4a 05:13.30 27.03.19
23 remain 05:15.87 10.08.20
24 bORN2MAKEPORN 05:20.04 01.04.19
25 RayajiN 05:22.41 06.08.18
26 Qicg 05:23.01 26.02.21
27 maronny 05:25.89 06.07.19
28 HjG-KazmaN 05:26.49 15.11.19
29 exodus 05:27.39 02.06.20
30 kvekar 05:28.53 02.11.18
31 Bu3T 05:29.21 03.03.19
32 EcLiPSe 05:30.44 04.06.19
33 sic 05:33.78 08.06.20
34 flawlessness 05:34.85 18.05.17
35 V4R10L4V3R4 05:37.38 17.09.21
36 inso 05:40.00 20.08.17
37 nema povlacenja 05:41.21 28.02.17
38 michik 05:46.50 09.03.17
39 vadimzoredd 05:47.82 15.11.19
40 olenka 05:54.69 22.03.18
41 Андрюха_Грязь 05:57.27 08.06.20
42 Taewii 06:01.22 24.02.18
43 theon1y 06:02.56 07.04.19
44 Qalwin 06:09.56 21.08.17
45 RCN 06:10.98 19.09.17
46 Acubens 06:14.28 01.04.19
47 Presive 06:16.28 08.06.20
48 Shinzo 06:19.89 08.06.20
49 Bombiribom 06:21.93 24.02.18
50 DON_SIMON 06:25.02 01.04.19
51 Basterikus 06:26.65 21.02.18
52 Poh0sZ3us 06:27.18 13.03.19
53 k1ever 06:29.28 04.06.17
54 CT_MPA3b 06:31.84 17.12.17
55 slow 06:31.88 15.12.20
56 None 06:32.58 21.11.17
57 mistik 06:32.91 22.03.18
58 Shockwave 06:38.44 03.03.19
59 techno 06:41.84 04.06.19
60 Masljonok 06:43.29 02.11.18
61 say 06:45.54 06.07.19
62 gidozepam 06:47.95 27.03.19
63 111 06:49.48 14.06.17
64 Cius 06:53.11 15.12.20
65 Spekals 06:54.06 23.02.18
66 estrom 07:02.06 01.04.19
67 PoweR 07:06.67 15.11.19
68 mvxtip 07:09.66 13.03.19
69 Raiden 07:12.13 24.05.21
70 Seth 07:12.67 02.06.20
71 z5N 07:23.30 04.06.17
72 toyzz 07:24.80 19.09.17
73 Telegin 07:35.82 14.07.20
74 space 07:40.80 04.03.18
75 r0xx0r 07:43.26 17.09.21
76 DragKedja 07:53.94 04.06.19
77 walkthedog 07:54.10 24.02.18
78 myinkluch 07:54.95 08.06.20
79 W1nS 07:56.76 23.02.18
80 en_te 07:59.00 02.06.20
81 FulminanT 07:59.26 04.06.19
82 JustDoItT 08:01.26 02.11.18
83 Emilia 08:08.24 21.02.18
84 chij 08:09.36 08.11.18
85 AKB 08:13.69 26.02.21
86 rbN 08:25.48 06.07.19
87 reebok<mom-crew> 08:30.19 09.03.17
88 Player 08:30.71 24.02.18
89 supraa 08:34.83 04.06.19
90 CBuHb9 08:38.98 12.08.20
91 LoLk2 08:44.90 26.02.21
92 eastmordor 08:47.92 15.12.20
93 ouki_BATTLEGOD 08:53.67 09.03.17
94 Conquest_l_Okich__R 09:03.61 27.03.19
95 Bunny^ 09:12.84 20.08.17
96 slovaed 09:15.40 27.03.19
97 nakurennIq 09:22.73 27.03.19
98 Nutella 09:23.15 04.06.19
99 [D]Blood_C 09:28.76 06.07.19
100 K42N4CH 09:54.89 21.08.17
101 cmaster 09:56.79 07.02.19
102 pttttt 10:00.31 06.07.19
103 Dodik 10:05.35 04.06.19
104 avivVv 10:38.90 22.10.20
105 40fps 11:31.33 02.06.20
106 E1EMENTCORE 11:38.55 04.06.19
107 .Smail~ 12:25.30 08.12.17
108 Mirnaya 14:17.66 04.06.19
109 IDs^^ 21:20.60 04.06.17
# Player Time Date Weapon CP GC
1 rawe 02:35.40 24.02.18 28 2
2 SlasHeR 02:51.14 06.07.19 46 11
3 pL 02:54.70 17.12.17 36 4
4 silentq 03:03.97 30.01.17 67 7
5 dAREALZYX 03:40.26 12.08.20 68 14
6 ScrAw 03:45.51 24.02.18 52 15
7 Stanley 03:52.01 15.11.19 85 3
8 Master_Me4a 03:52.97 27.03.19 106 12
9 7ET9_KyPO4KuH_HA_yA3uKE 04:02.24 06.07.19 62 17
10 HELLBOUND 04:06.88 29.05.21 104 24
11 RoN` 04:32.17 22.01.17 82 5
12 kocm 04:35.57 02.06.20 115 12
13 sook 04:42.43 01.04.19 98 9
14 Lex 04:48.87 23.02.18 97 23
15 2 04:49.09 06.07.19 74 10
16 23savage 04:51.15 20.08.17 121 4
17 gidozepam 05:02.46 01.04.19 112 13
18 squirt_(dal_dal_ywel) 05:02.74 23.02.18 125 10
19 mistik 05:03.38 27.03.19 97 8
20 xenge 05:06.71 22.04.18 133 25
21 maksuk 05:07.41 02.11.18 91 19
22 erdik 05:09.81 15.03.18 104 18
23 kuku 05:17.03 03.03.19 99 16
24 wooo 05:17.25 08.11.18 97 19
25 fantastikaaaaaaa 05:19.21 24.02.18 135 22
26 Bombiribom 05:24.09 21.02.18 92 19
27 urosh_h 05:25.12 01.04.19 51 9
28 artem671games 05:25.68 26.02.21 129 33
29 Electro^ 05:28.11 13.03.19 75 25
30 yohohox 05:29.91 22.03.18 58 64
31 mvxtip 05:31.19 13.03.19 135 21
32 ArvInD 05:32.32 17.09.21 111 22
33 bORN2MAKEPORN 05:32.97 01.04.19 100 24
34 ddqwex 05:34.32 03.03.19 123 29
35 ASDASDASDASDASDASDASD 05:35.93 15.11.19 88 28
36 n_o_b_o_d_y 05:39.14 06.07.19 81 22
37 php_echo_Hello_World_ 05:40.42 18.05.17 130 14
38 Shockwave 05:40.84 03.03.19 146 23
39 flawlessness 05:43.32 18.05.17 111 27
40 Xixi 05:44.84 04.06.19 124 35
41 KRATER_O 05:45.74 01.04.19 103 28
42 theend 05:45.89 09.03.17 94 27
43 rapier 05:45.94 02.11.18 94 14
44 ACID_THUNDER 05:48.66 26.02.21 86 34
45 NK37__-den4ik- 05:49.89 16.06.18 110 21
46 ПыЛкиЙ 05:50.15 04.03.18 103 24
47 t4 05:50.20 28.02.17 91 21
48 Йоулупукки 05:50.25 28.02.17 132 22
49 exodus 05:54.41 02.06.20 117 15
50 theon1y 06:00.31 07.04.19 180 43
51 azino777 06:03.98 13.03.19 115 23
52 SShooolD 06:05.66 11.11.18 94 29
53 1WERANCE 06:06.02 15.11.19 130 33
54 olenka 06:06.89 22.03.18 157 5
55 EcLiPSe 06:12.83 06.08.18 115 20
56 JustDoItT 06:15.73 01.08.18 119 2
57 HOPEZ 06:16.22 24.05.21 110 23
58 DRKUPTOWN 06:21.43 06.07.19 154 47
59 gOldeNkz 06:32.30 01.04.19 70 1
60 Madcat 06:36.84 04.06.19 115 41
61 x[X]e0n 06:38.71 16.06.18 105 32
62 Johnny_Dedd 06:38.83 08.06.20 107 36
63 Paco 06:39.09 04.06.19 60 33
64 Yacoff 06:43.94 15.06.17 104 39
65 Devl1312 06:45.56 15.12.20 144 28
66 TRENTCANTRELLE 06:46.62 21.11.17 95 30
67 cHoseNXD- 06:46.85 26.02.21 159 44
68 cadence 06:48.19 06.07.19 174 24
69 Lynox 06:50.97 27.03.19 137 51
70 fake 06:51.45 04.03.18 126 51
71 fanzeng 06:54.34 18.05.17 118 48
72 cyxue_nonku^huggies 06:54.40 08.11.18 123 27
73 Xednay 06:57.02 15.12.16 115 53
74 Quest 06:57.09 08.11.18 108 52
75 CoMeBaCK 07:07.65 08.06.20 126 50
76 Goodr1ch 07:08.32 02.11.18 109 44
77 Qalwin 07:10.87 15.06.17 99 34
78 1NF 07:11.16 03.11.17 147 44
79 Taewii 07:11.76 23.02.18 90 36
80 PAMAH HAPKAMAH 07:14.20 18.05.17 86 31
81 Mark 07:18.89 04.06.17 64 66
82 Number_One_xD 07:18.97 04.06.17 152 56
83 HjG-KazmaN 07:19.92 01.04.19 83 42
84 Player 07:22.74 15.12.16 114 53
85 KaGeBe 07:28.00 04.06.19 159 55
86 Lique 07:54.36 02.06.20 179 71
87 Player 07:56.62 09.03.17 189 24
88 Bunny^ 07:59.10 20.08.17 153 34
89 walkthedog 08:07.17 17.12.17 154 31
90 E1EMENTCORE 08:14.26 04.06.19 181 45
91 Gifted 08:15.43 08.06.20 121 47
92 Mist 08:17.87 04.03.18 129 59
93 sdfasdfa 08:21.21 04.06.17 135 36
94 Mr.Tken 08:38.79 03.03.19 85 59
95 RCN 08:52.38 19.09.17 139 84
96 DOGgggg 08:55.45 03.03.19 96 70
97 Alpine.EXAMPLE-S 09:16.01 20.08.17 58 41
98 pooh 09:21.29 04.06.19 89 75
99 XnayiL 09:25.10 18.05.17 87 63
100 thienlao111 09:34.73 02.11.18 89 117
101 ser 09:38.29 03.11.17 146 56
102 monO_Ob_le_sp3ctat3ur 10:03.48 08.06.20 163 61
103 Player 10:20.63 08.06.20 184 48
104 просто_Свит! 10:26.77 28.02.17 182 84
105 LoseSelection 10:36.83 26.02.21 135 101
106 1488 10:55.56 21.03.17 239 96
107 imp 11:10.09 20.08.17 28 30
108 Молодой_Egoist 11:22.87 04.06.17 200 99
109 Nice 11:48.17 03.11.17 98 64
110 10047.1jeg 11:53.25 16.06.18 125 106
111 cstrike 12:15.64 15.11.19 167 130
112 T1XoN 12:24.33 08.12.17 83 75
113 Enemy_down 12:30.50 28.12.16 219 93
114 Provod_russia 12:31.74 04.03.18 72 31
115 puk 12:35.15 11.11.18 99 169
116 NubAs- 12:35.35 04.03.18 35 61
117 {Fn}_Amon 12:46.69 24.02.18 181 128
118 Mirnaya 12:58.38 04.06.19 137 71
119 otecgreg 13:00.74 14.06.17 104 72
120 dimaRIC 13:00.85 20.01.17 173 132
121 na_zabiv! 13:05.82 15.11.19 104 91
122 bluntsfromthecrypt 13:18.22 02.06.20 115 224
123 Shiro 13:26.56 25.08.16 144 72
124 LinKoreecZaebal 13:31.41 12.08.20 191 140
125 Qwerty 13:39.05 28.12.16 150 108
126 Shift 13:49.02 22.03.18 82 54
127 lugenlord 13:54.45 26.08.16 74 59
128 nokia 14:08.41 13.06.19 168 125
129 IDs^^ 14:20.20 03.09.17 80 180
130 dlvm 14:45.58 10.02.18 173 50
131 (qwerty)_aidar 15:59.88 20.08.17 82 122
132 STRayZz 16:04.97 24.02.18 152 115
133 atopsgaming 16:20.77 02.06.20 135 296
134 sS_l_Asiimov 25:04.58 16.06.18 142 121
135 The_king_of_dragons 50:40.68 20.08.17 198 1100
# Player Time Date Weapon CP GC
1 fnaticRC_Xizt 09:22.25 11.11.18 5 8
2 PUMPUMTUTUTUGRRRRRRRRAA 09:38.14 11.11.18 60 41
3 Zhopodjor228 17:30.93 10.02.18 273 104

Other maps with same difficulty

Other maps from Xtreme-Jumps

Other maps from mapper DyleT2